COSMOS 2056

Satellite information

Favourite Embed

Satellite Type and Status

PAYLOADIN ORBIT

Key statistics

Satellite COSMOS 2056 at a glance.

Uptime

13113

Days in orbit

Revolutions

≈ 14.3

Per day

Orbit

LEO

Low Earth Orbit

Inclination

74.0

Latest

Satellite identification and parameters

Extended collection of information and parameters for COSMOS 2056.

Object identification

Identified? True

Debris? False

Object name: COSMOS 2056

International designator: 1990-004A

Object number (NORAD): 20432

Object ID (CCSDS): 20432

Country: COMMONWEALTH OF INDEPENDENT STATES (CIS)

Current information (Y/N): Y

RCS size: LARGE

Orbital parameters

Period: 100.404 minutes

Inclination: 74.0301 deg

SMA: 7155.837 km

Apoapsis: 794.324 km

Periapsis: 761.081 km

RAAN: 148.7149 deg

Eccentricy: 0.00232277

Argument of periapsis: 251.9865 deg

Mean anomaly: 107.8756 deg

Mean motion: 14.34207806 rev/day

Mean motion (dot): 0.00000305 rev/day2

B* drag term: 0.0001180067 1/REarth

Two-line elements (TLE)

Creation date: Dec. 12, 2025, 10:14 a.m.

Reference frame: TEME

Reference center: EARTH

Epoch: Dec. 12, 2025, 5 a.m. UTC

TLE line 0: 0 COSMOS 2056

TLE line 1: 1 20432U 90004A 25346.20893136 .00000305 00000-0 11801-3 0 9998

TLE line 2: 2 20432 74.0301 148.7149 0023228 251.9865 107.8756 14.34207806876926

Live tracking on map

Real-time ground track for satellite COSMOS 2056.

In-orbit conjunctions

A list of the most updated potential collisions computed for object COSMOS 2056.

Target Orbit TCA Probability of collision Miss distance Type
FENGYUN 1C DEB SSO 2025-11-16 08:09:46 0.0001451038 690.0 (m) DEBRIS
DMSP 5D-2 F12 DEB SSO 2025-11-12 00:31:26 0.006507533 26.0 (m) DEBRIS
FENGYUN 1C DEB SSO 2025-04-20 06:49:56 0.0005688986 122.0 (m) DEBRIS
FENGYUN 1C DEB SSO 2025-03-26 00:56:05 0.0001854901 687.0 (m) DEBRIS
IRIDIUM 33 DEB LEO 2025-03-21 04:54:23 0.0003702611 201.0 (m) DEBRIS

Associated space launch

Military communications satellite

COSMOS 2056 was lifted into orbit during the mission ‘Kosmos-3M | Strela-2M 47’, on board a Kosmos-3M space rocket.

The launch took place on Jan. 18, 1990, 12:52 p.m. from 133/3 (133L).

For more information about the launch, click the button.

Launch to space Kosmos-3M | Strela-2M 47
Kosmos-3M | Strela-2M 47

Agency: N/A

Status: Launch Successful

Launch date: Jan. 18, 1990, 12:52 p.m. UTC

Rocket: Kosmos-3M

Launch pad: 133/3 (133L)

Location: Plesetsk Cosmodrome, Russian Federation

...

Latest news about this satellite

There are no fresh news available about this satellite. Check back as we update our databases every day.


Newsletter sign-up

Weekly statistics, charts and insights to help you stay on top of the space industry.